STARLINK-5615, 55425

Orbit data source: Space-Track

STARLINK-5615, 55425 is a payload satellite owned by SpaceX/Seattle (US) in LEO that was launched on Tue, 31 Jan 2023 UTC via an FALCON 9 launch vehicle from the Air Force Western Test Range (AFWTR). Payload-class satellites include a variety of spacecraft equipped with specific instruments for various scientific and technological missions. These include communications satellites like Starlink; space stations such as the ISS; scientific satellites like the Hubble; Earth observation satellites from companies like Planet Labs, Umbra, and HawkEye 360; GPS; miniature CubeSats for education and research; and military/defense satellites.

Loading next visibility...
Identifier
55425, 2023-014AL
Orbit
LEO
Country
Flag of USUS
Related business
Manufacturer
SpaceX/Seattle
Mission
Operational Commercial Communications
Bus & Motor
STARLINK, Unknown motor
Mass
305 kg wet, ~290 kg dry
Launch date (UTC)
2023-01-31 (3 years ago)
Launch vehicle
FALCON 9
Launch site
Air Force Western Test Range (AFWTR)
Object type
Payload
Rocket body
Debris
Shape & HBR
Box + 1 Pan, 10.1 m
Radar Cross Section
13.562 m², Large (>1 m²)

Expand to show TLE details & history
Last TLE update: 2 days ago

TLE from 2 days ago
0 STARLINK-5615
1 55425U 23014AL  26171.44886297 -.00000139  00000-0 -38214-5 0  9994
2 55425  69.9992 185.3963 0003303 265.8549  94.2232 14.98332981186959
Epoch: 2026-06-20T10:46Z
TLE epoch observation values (Epoch: 2026-06-20T10:46:21.760Z)
Latitude
-0.00009°
Longitude
115.14227°
Altitude
574.64 km
Speed
7.574 km/s
True Right ascension
12h 21m 35s
True Declination
0° 00' 00"
Sunlit
Object was in daylight at epoch
Visualization orbit readout
Latitude
Unknown
Longitude
Unknown
Altitude
Unknown
Speed
Unknown
Apparent Right ascension
Unknown
Apparent Declination
Unknown
Sunlit
N/A
Visualization observer readout
Local Sidereal Time
21:28:55
Azimuth
Unknown
Elevation
Unknown
Doppler factor
Unknown
Orbital elements
Apogee altitude
572.29 km
Perigee altitude
567.7 km
Semi-major axis
6,948.132 km
Eccentricity
0.00033
Inclination
69.9992°
RAAN
185.3963°
Arg. of periapsis
265.8549°
True anomaly
94.26095°
Mean anomaly
94.2232°
Eccentric anomaly
94.24207°
Mean motion
3.7475 °/min
Orbital period
96.06 mins
BSTAR
-0.0000038214
Loading maneuver chart data...
Computing Atmospheric mass density...

Documentation

Showing up to 5 results
|